RH
3 4 4 4 4 4 4 4 4 4 4 4 4 4 4 3 3 3 3 3 3 4 3 4 4 4 5 6 7 8 9 20 33 39 36 29 24 22 22 18 16 18 20 22 21 22 23 23 23 24 25 25 27 27 27 26 20 16 15 18 17 16 15 20 48 75 82 79 72 67 60 53 52 48 43 39 34 30 25 20 17 15 13 13 13 14 14 14 14 14 14 18 24 27 31 37 37
3 4 4 4 4 4 4 4 3 4 3 4 4 4 3 3 3 3 3 3 3 3 4 4 4 4 4 4 4 7 11 13 16 15 13 14 14 15 17 17 16 18 21 22 22 22 22 22 23 24 25 25 26 24 24 22 18 15 16 19 18 17 14 20 51 77 84 87 79 71 66 59 56 51 46 41 35 31 26 21 18 15 13 13 13 13 14 14 15 15 14 17 24 29 31 37 40
3 4 4 4 4 4 4 3 4 3 4 4 3 4 3 3 3 3 3 2 3 3 4 2 4 4 4 9 7 16 29 21 14 12 8 7 9 11 13 15 17 19 21 22 22 22 22 22 22 23 23 23 22 21 21 18 17 15 16 19 19 19 15 24 53 72 85 93 85 77 70 64 60 54 48 44 38 33 27 22 18 16 14 12 13 13 14 14 15 15 15 17 23 28 31 38 42
3 4 4 4 4 4 4 3 4 3 3 4 5 4 2 4 3 3 3 2 3 2 3 3 8 7 8 18 15 18 23 13 9 9 9 9 11 13 14 17 18 19 20 21 21 21 22 21 21 21 19 18 16 16 15 14 16 14 16 16 22 30 21 23 42 60 80 91 88 82 75 68 64 57 52 47 39 34 28 23 20 18 15 13 13 13 14 14 15 16 17 19 23 27 31 38 44
3 4 4 4 4 4 4 4 3 3 3 4 6 4 2 3 2 3 2 3 2 2 3 2 11 12 8 11 8 12 11 4 7 6 9 11 12 15 17 19 19 20 20 19 20 21 22 21 20 18 16 14 12 12 11 14 14 14 17 13 34 53 33 21 31 47 69 86 92 86 78 73 67 60 55 49 40 35 28 23 21 19 17 14 14 14 15 16 16 17 18 21 25 29 31 36 43
4 4 4 4 4 4 3 3 3 4 3 3 4 3 3 3 2 3 2 3 2 2 2 2 20 26 17 14 5 6 6 5 8 7 10 11 12 15 17 19 19 19 18 18 19 20 21 20 18 16 15 13 13 15 16 15 14 22 20 17 51 62 34 23 25 35 56 84 95 87 81 77 70 63 59 52 41 36 30 25 23 20 17 16 15 15 16 17 17 18 19 21 27 33 33 35 41
4 4 4 4 4 4 3 4 3 4 3 3 3 3 3 2 2 2 2 3 1 2 2 8 32 38 30 24 12 6 6 6 8 8 10 11 12 14 16 17 17 18 17 18 18 19 19 18 17 16 15 11 17 32 35 22 21 39 34 35 67 61 34 26 23 30 52 84 96 86 84 81 72 64 60 53 42 37 31 26 24 20 18 17 16 16 17 17 18 19 20 21 26 34 37 38 41
4 4 4 4 4 4 4 4 3 4 4 3 3 3 2 2 2 2 2 2 2 3 2 7 24 39 40 26 15 11 8 8 8 9 10 11 12 12 14 16 17 17 17 17 16 18 19 19 18 15 12 10 18 37 46 32 27 49 48 46 69 68 54 42 32 40 59 82 93 87 86 84 72 61 60 55 44 38 32 27 24 21 19 18 18 18 18 18 19 19 21 22 26 34 40 44 46
4 4 4 4 4 4 4 3 4 4 3 3 3 3 2 3 2 2 3 2 3 2 4 14 24 46 54 30 18 12 7 9 9 11 12 13 15 15 17 18 19 18 18 19 18 20 20 18 15 12 11 10 14 24 41 43 37 55 61 55 68 78 73 63 54 61 71 77 82 84 86 85 70 61 63 57 46 40 33 29 26 23 21 20 20 20 20 20 20 20 20 22 27 35 40 47 54
5 5 4 4 4 4 4 4 4 4 3 3 3 3 3 3 3 3 3 3 3 2 10 20 20 33 38 23 17 11 9 12 10 14 15 15 19 20 22 22 23 21 21 21 20 20 17 14 13 13 12 12 14 16 34 51 47 55 72 76 83 89 84 78 74 80 86 80 75 77 87 86 68 64 68 58 47 41 35 32 29 26 24 22 21 21 21 21 22 20 20 21 26 35 39 46 59
5 5 5 5 4 4 4 5 4 4 4 3 3 3 3 2 3 3 3 3 2 5 11 12 6 10 13 8 10 10 13 14 14 18 18 18 20 21 22 21 22 21 21 20 19 16 13 13 13 14 14 16 20 20 30 46 43 41 70 94 95 93 91 87 84 86 89 90 83 77 88 86 69 71 70 55 48 42 38 36 33 28 25 24 24 23 22 22 22 21 20 21 24 32 38 43 56
5 5 5 5 5 5 5 5 5 4 3 3 3 3 3 3 3 3 3 3 3 6 6 4 4 5 6 6 8 10 15 18 19 20 19 21 21 21 20 18 18 18 18 15 15 15 13 13 13 15 16 18 24 28 27 29 27 23 48 84 93 92 89 89 93 93 90 95 92 85 90 83 75 78 66 52 48 44 41 39 35 30 26 27 28 27 24 23 22 23 21 20 22 28 35 42 52
6 5 5 5 5 5 5 6 5 4 4 3 3 3 4 3 3 3 3 3 4 7 4 4 6 5 7 10 13 17 21 25 25 25 25 24 23 22 19 17 16 14 13 12 15 15 14 13 13 15 14 15 17 20 16 13 15 12 20 42 62 79 87 90 95 96 97 98 97 97 93 84 84 80 62 54 51 47 45 40 38 33 28 28 30 30 28 26 24 24 23 20 19 22 32 42 50
6 6 6 6 6 6 6 6 5 5 4 3 3 4 3 3 3 3 4 4 5 7 5 6 6 8 12 14 19 22 26 30 28 28 28 26 24 21 17 16 14 13 12 13 14 13 12 12 13 13 11 12 11 11 10 9 12 14 15 19 37 68 86 92 92 94 100 100 100 100 95 90 89 77 62 58 54 51 47 42 40 35 29 27 27 29 30 29 27 26 24 22 19 17 25 37 48
7 7 7 8 8 7 7 6 6 5 4 4 4 4 4 4 4 3 5 6 8 7 6 8 7 13 23 23 24 22 24 27 26 26 25 23 20 17 16 14 13 13 13 12 11 12 12 11 12 12 10 10 8 8 8 11 18 23 25 26 39 68 89 94 94 95 99 99 100 101 98 93 83 70 64 61 59 55 50 47 43 37 30 26 25 26 28 29 30 29 27 24 21 17 17 26 42
7 7 8 9 9 9 8 7 6 6 5 4 4 4 5 4 4 5 6 7 9 6 6 11 10 17 28 28 27 25 24 25 24 23 20 18 17 16 16 15 16 15 13 11 10 12 13 12 12 10 9 8 6 7 6 9 18 27 36 40 46 73 97 99 97 97 99 100 100 101 96 86 76 71 71 69 67 62 57 53 46 37 29 27 27 26 27 28 29 30 30 27 24 20 16 16 27
8 7 8 9 10 10 10 8 8 8 5 4 5 4 5 5 5 5 4 5 6 7 8 12 14 18 23 22 24 25 24 25 22 20 18 19 18 17 18 18 18 16 12 10 7 10 12 12 11 9 6 5 8 9 8 9 19 30 41 52 59 75 95 96 98 100 99 101 101 100 94 86 82 79 78 76 71 66 62 56 45 35 29 28 28 28 29 30 31 32 33 30 26 22 20 16 15
8 9 10 10 11 10 10 9 7 7 5 5 5 5 6 5 5 5 7 7 5 6 8 10 13 16 19 19 23 24 24 23 19 19 19 20 19 20 22 19 17 14 11 8 6 9 8 8 8 7 5 5 11 14 13 16 29 39 48 71 79 76 85 88 93 98 97 100 100 100 98 94 90 84 80 77 73 68 62 54 43 33 29 29 29 30 31 33 35 36 36 33 28 22 20 19 16
10 10 12 12 12 11 11 9 7 6 6 6 5 7 6 6 9 9 13 13 6 8 9 11 12 14 19 21 24 25 22 21 19 21 21 22 23 23 22 17 14 11 9 8 7 7 6 5 5 5 5 4 7 9 16 27 48 59 60 76 75 71 88 91 88 90 92 97 98 99 99 95 89 84 80 78 76 71 63 53 41 33 29 28 29 31 34 39 42 40 40 37 32 24 19 18 18
11 12 14 14 13 12 11 9 8 7 6 7 6 8 6 7 10 12 25 21 5 6 6 8 14 16 21 23 25 24 22 22 23 24 24 24 24 21 19 15 12 10 9 9 7 7 5 5 5 5 5 6 7 4 13 34 58 62 47 47 54 73 98 96 89 84 82 89 91 94 95 92 87 84 84 82 79 71 59 48 39 34 32 31 31 32 35 43 48 46 44 42 37 28 20 17 17
12 14 15 15 13 13 12 10 9 8 8 8 7 8 7 8 7 10 31 32 21 30 26 14 13 16 20 22 22 22 23 26 28 28 26 24 21 18 16 13 11 10 9 8 7 7 6 7 5 5 6 7 7 7 18 32 40 46 50 60 73 91 99 94 88 76 72 80 87 91 87 86 85 86 88 84 78 67 53 45 40 36 35 36 34 35 38 44 52 53 50 46 42 34 24 18 16
13 16 16 15 15 14 13 11 11 10 9 9 8 10 9 9 9 7 19 26 30 48 50 34 24 20 20 21 22 25 28 31 32 31 27 22 20 18 15 12 11 10 8 8 8 7 8 8 6 9 10 9 14 29 50 48 42 62 83 91 94 95 94 90 82 73 76 85 94 92 83 84 84 83 84 78 70 60 51 44 39 35 34 35 34 38 43 48 54 55 55 52 46 39 30 23 19
15 17 16 15 16 15 14 12 12 12 11 10 9 10 11 9 11 9 10 16 20 24 28 28 27 24 23 24 26 28 31 34 33 30 26 23 21 17 14 11 9 9 9 9 8 9 10 10 11 13 11 19 37 57 78 74 71 91 97 89 87 84 84 84 77 75 86 94 95 89 83 86 86 86 80 71 63 55 49 42 36 34 34 36 36 41 50 54 55 56 59 58 52 45 36 31 27
16 17 17 16 16 15 15 13 14 14 12 12 11 11 12 11 11 11 10 11 13 12 12 17 21 24 27 28 29 31 34 35 33 29 26 23 20 15 12 10 11 11 10 11 12 12 12 15 17 16 25 48 62 64 80 92 94 100 95 82 81 84 80 73 72 81 94 95 87 86 89 84 83 89 77 62 57 51 46 40 33 31 35 42 41 43 51 55 56 58 61 62 60 54 46 39 36
16 17 17 16 17 16 15 14 15 16 14 12 13 12 12 13 12 12 12 11 12 13 15 19 23 28 32 33 33 34 35 35 33 29 25 22 17 13 11 10 12 12 12 14 13 14 19 23 21 28 48 64 68 64 68 86 97 98 95 82 82 95 85 69 77 92 93 84 78 85 92 85 81 86 76 61 54 48 43 36 29 24 28 37 42 46 52 55 56 57 60 64 65 63 58 52 47
16 17 17 17 18 17 15 15 16 16 15 13 14 14 13 13 14 13 13 13 13 14 18 22 27 33 35 36 38 37 37 36 32 28 23 19 14 11 11 12 14 14 16 15 15 25 35 33 30 43 56 50 53 63 62 70 83 85 83 76 80 90 83 74 84 89 79 73 75 80 82 76 70 74 77 64 48 42 37 32 27 24 24 28 37 46 51 54 54 53 57 63 67 68 66 62 56
15 16 16 17 18 17 16 17 17 16 16 15 15 15 14 14 15 16 15 14 14 15 17 20 25 31 34 36 38 39 38 35 30 26 21 16 12 12 14 15 16 19 27 26 24 34 44 48 50 55 59 49 49 64 70 73 76 72 71 77 80 78 79 84 82 72 64 63 63 62 63 60 54 60 68 56 39 34 33 34 33 32 34 36 43 49 50 51 51 51 56 61 66 67 65 62 57
14 16 16 18 19 18 18 17 18 17 17 17 17 16 16 16 16 17 17 16 15 16 17 18 22 25 29 31 32 32 32 31 28 23 19 14 13 16 20 25 28 36 47 43 40 52 60 67 73 72 70 61 57 64 70 69 70 72 74 81 79 70 78 82 65 53 50 47 45 47 50 50 49 55 60 55 48 40 39 46 47 47 51 54 57 55 49 49 51 54 58 60 60 59 56 52 48
14 15 16 18 19 19 18 18 18 18 18 18 17 17 17 17 18 18 17 17 17 17 18 18 20 22 24 25 26 27 27 27 24 20 17 14 16 18 24 40 46 51 58 52 56 74 80 79 76 78 78 69 65 66 63 61 66 77 86 85 71 63 70 65 48 41 39 36 40 45 47 46 48 53 55 54 52 42 37 43 50 65 74 65 58 55 51 51 55 59 60 58 55 54 52 50 49
13 14 15 16 18 19 18 18 18 19 19 19 19 19 19 19 19 19 18 18 18 18 19 19 20 20 21 21 23 25 24 23 19 18 17 14 19 17 23 47 53 48 53 58 64 68 74 82 78 74 75 69 67 64 60 59 63 76 85 77 60 54 56 49 40 38 36 37 41 44 45 43 41 45 46 45 47 38 29 33 44 63 72 60 54 57 59 56 53 50 52 55 55 55 56 55 57
12 13 14 15 18 20 19 19 19 19 19 20 20 19 22 22 20 20 20 19 19 19 19 19 20 20 20 20 21 22 21 20 18 17 17 16 19 18 25 43 43 35 44 64 76 68 62 70 70 66 64 59 60 63 61 59 61 67 71 64 57 54 51 43 38 33 31 35 38 40 41 38 34 32 32 36 38 31 25 31 41 54 63 65 61 52 49 52 51 46 49 56 57 56 59 59 59
12 12 13 15 17 19 19 19 19 20 19 20 20 20 24 25 20 21 21 19 20 20 20 20 20 20 20 20 21 21 20 19 18 17 17 17 18 18 22 26 29 43 58 69 74 64 54 54 55 58 56 48 54 64 63 60 59 60 62 63 61 57 51 42 32 27 22 22 26 29 30 29 26 22 20 23 23 19 17 22 35 50 61 67 60 45 45 55 59 54 50 53 59 61 62 65 64
12 12 13 13 16 19 19 20 20 20 20 20 20 20 23 23 20 21 21 20 21 20 20 20 20 20 20 21 21 21 21 20 18 18 17 17 17 18 19 16 24 49 66 62 52 47 44 45 52 62 62 53 55 63 63 66 66 62 63 63 60 55 49 38 26 20 15 13 15 16 18 18 17 16 14 15 13 11 11 11 21 38 53 61 55 48 51 55 57 63 61 54 60 68 67 68 68
12 12 13 13 15 18 19 20 20 21 20 20 21 21 22 21 20 21 21 20 21 21 21 21 21 21 20 21 21 20 21 20 18 18 17 16 17 17 17 17 19 35 57 57 40 36 36 37 48 63 74 68 60 61 62 71 74 68 66 62 58 52 42 33 23 18 14 12 13 11 12 11 11 11 10 10 10 9 9 9 12 23 39 52 60 66 66 63 61 69 74 63 58 64 68 66 60
12 12 12 13 15 18 19 20 20 20 21 20 20 21 21 21 20 21 21 21 20 20 21 21 21 21 21 21 21 21 21 20 19 18 17 17 17 17 17 17 18 27 51 56 43 46 45 39 42 54 75 80 69 66 65 70 72 68 66 58 53 48 38 30 22 17 15 14 14 12 11 10 9 10 9 9 9 9 9 8 9 15 24 35 54 70 74 79 79 76 76 66 57 60 64 60 49
13 13 13 13 15 17 19 20 20 20 21 21 20 21 21 21 21 20 21 21 21 21 20 21 21 21 21 22 21 21 21 19 19 19 18 18 16 17 17 16 19 22 35 44 49 68 63 43 40 40 56 71 69 68 66 65 65 65 64 55 47 43 34 27 21 18 17 17 18 15 13 11 9 9 9 8 8 9 9 8 9 11 16 23 36 49 59 75 83 83 77 63 57 60 61 52 40
14 13 13 14 15 17 18 18 19 20 20 20 20 20 20 20 20 20 21 20 20 21 20 20 20 20 20 21 22 21 21 19 19 19 18 18 17 18 19 19 23 22 25 27 32 54 56 50 57 44 34 48 57 61 61 58 60 62 60 53 47 42 37 32 26 23 22 21 20 18 16 13 10 9 9 9 9 9 9 9 9 9 11 16 24 34 49 61 61 64 63 56 57 59 57 47 36
15 15 14 15 15 17 17 18 19 19 19 20 19 19 20 20 20 19 20 20 20 19 20 20 18 19 19 20 22 21 22 20 18 18 18 19 19 20 22 23 28 26 23 18 15 33 49 56 66 48 24 32 45 52 55 55 58 59 54 50 47 45 44 40 33 30 29 29 24 19 17 15 13 11 9 8 9 9 10 9 9 10 10 11 16 21 29 35 32 36 44 48 53 54 52 45 35
15 17 16 16 17 16 16 17 18 18 19 19 19 19 19 19 19 20 18 17 19 19 18 18 15 15 18 21 22 22 23 21 20 21 22 24 26 26 26 25 26 23 18 16 12 24 44 51 57 48 32 32 39 46 53 55 55 52 45 43 44 47 47 42 38 37 36 36 30 22 18 18 18 15 13 11 9 9 9 10 9 9 10 9 11 12 14 18 18 21 27 33 41 47 48 40 32
14 15 16 17 17 17 19 19 17 18 18 18 18 17 18 19 16 16 19 17 16 17 15 13 13 15 19 22 23 25 26 25 26 28 30 35 36 33 30 25 24 20 17 17 13 17 33 43 49 49 39 37 41 44 50 53 51 45 40 40 42 45 45 42 41 40 41 42 35 24 20 19 20 20 18 15 13 13 10 10 10 8 9 8 9 10 11 13 13 14 15 22 34 38 41 40 34
11 11 13 16 15 17 20 18 16 16 16 16 16 16 18 22 20 14 15 16 14 14 14 13 15 16 19 25 28 29 30 32 38 42 44 46 43 37 33 29 28 25 20 20 19 18 23 31 39 39 34 35 39 43 48 51 48 44 41 41 44 45 44 42 41 41 48 50 38 25 22 22 24 28 29 25 19 17 15 13 12 10 10 9 9 9 10 10 11 11 10 22 36 35 40 47 38
10 10 10 11 12 13 14 14 13 13 15 15 13 20 25 21 23 22 15 18 20 20 22 22 22 23 27 33 35 35 42 50 57 57 53 47 41 39 38 34 34 33 27 24 23 23 23 27 31 29 28 30 32 38 46 48 47 45 43 43 44 46 45 44 46 50 56 55 41 26 25 34 42 45 45 43 33 22 18 17 16 15 13 12 11 10 10 10 10 10 8 15 25 24 30 35 26
8 9 10 10 11 11 11 10 10 16 27 24 14 28 47 38 29 30 23 24 31 32 35 36 35 39 41 43 48 56 64 68 63 55 47 43 41 44 43 38 36 35 31 27 25 23 22 23 23 23 25 27 29 36 42 47 49 47 46 45 43 42 43 47 54 60 60 52 37 25 28 45 56 51 43 47 44 30 20 17 17 17 16 16 15 12 12 11 10 12 11 10 11 11 13 14 12
11 13 11 10 9 10 11 8 11 25 37 37 22 23 51 58 39 33 34 33 36 40 44 47 48 51 56 63 70 73 71 64 55 46 41 41 44 48 47 43 42 40 34 30 28 24 22 23 23 24 26 27 31 36 40 45 49 50 49 44 40 37 38 51 63 63 56 44 32 27 30 40 49 46 39 44 48 36 24 19 17 18 17 16 16 15 15 14 12 12 12 12 11 10 10 9 10
17 16 10 10 11 10 10 9 12 19 25 38 36 20 39 65 49 37 46 45 41 44 48 53 56 61 73 81 77 69 62 57 51 45 43 45 47 51 52 49 49 45 37 31 28 26 26 27 27 27 29 31 32 33 37 42 47 51 47 39 34 29 33 53 64 56 48 43 37 36 37 37 44 48 40 41 49 44 34 33 33 34 33 27 19 16 15 15 15 14 13 13 13 12 13 11 11
18 15 9 10 12 9 10 16 21 19 18 34 46 33 40 68 62 50 56 50 43 44 47 54 59 66 77 77 68 64 61 57 52 48 48 48 49 52 53 52 51 46 40 34 30 30 31 33 34 33 33 34 34 34 36 40 46 49 41 31 28 24 31 52 57 47 41 39 38 39 39 37 42 45 36 33 47 52 46 46 49 50 51 46 34 19 15 16 15 15 14 14 14 13 14 13 13
16 13 11 11 13 12 10 18 25 25 24 32 46 42 42 67 73 63 62 55 49 49 47 53 60 65 70 68 65 67 66 62 58 55 54 51 52 56 56 54 52 47 42 38 35 37 40 41 38 37 41 43 41 41 42 44 49 48 36 28 28 26 32 49 55 50 42 34 29 28 28 27 27 28 23 23 41 56 57 54 53 53 53 53 44 25 14 14 14 14 15 14 15 13 13 14 13
14 11 13 16 17 14 16 28 27 22 33 44 53 47 38 62 80 70 64 61 59 61 59 60 65 67 68 68 68 68 69 69 61 53 50 47 50 55 57 56 52 48 45 42 42 39 37 38 38 47 63 66 56 49 48 51 51 44 34 31 34 33 34 42 45 45 42 36 35 35 36 36 31 28 24 24 37 53 60 59 56 58 57 53 47 31 17 13 13 12 13 13 13 14 13 13 13
14 13 20 29 35 29 23 38 37 26 39 53 57 48 35 54 74 68 67 67 61 62 64 65 67 70 70 67 67 69 74 76 65 53 47 42 42 46 52 55 49 46 43 38 38 36 36 42 46 64 85 87 81 67 49 46 43 36 35 37 38 37 36 38 38 38 38 38 39 40 39 40 41 42 45 48 55 61 64 64 60 61 60 51 40 28 17 14 13 11 11 11 11 11 12 12 12
14 19 28 35 56 54 25 31 46 41 46 48 45 41 35 47 60 58 64 70 66 63 64 66 68 71 72 67 66 71 77 80 70 58 54 50 44 39 41 47 43 39 40 40 41 44 50 51 48 70 94 91 86 78 54 44 42 36 39 41 39 38 35 34 32 32 36 37 36 36 35 37 41 45 50 56 61 65 71 73 68 63 57 44 29 20 16 13 13 12 10 9 9 9 10 10 11
25 30 39 36 55 65 40 40 58 55 50 46 38 34 34 45 55 57 62 66 66 67 66 67 69 70 71 70 70 75 80 84 79 69 66 62 55 45 35 36 44 47 47 51 60 66 66 57 43 56 81 80 73 71 60 52 49 44 45 43 37 33 31 29 29 33 44 51 49 47 48 53 57 56 54 52 52 61 76 79 70 61 51 37 23 16 13 12 12 12 11 9 8 7 7 7 7
40 34 38 36 45 58 50 46 54 53 52 50 41 33 30 38 51 63 71 67 64 67 68 68 70 70 71 71 72 77 81 86 86 81 75 70 71 66 44 28 36 45 44 44 57 72 79 79 71 63 69 73 69 67 65 63 59 56 54 46 38 35 35 37 40 44 52 56 54 55 57 58 61 61 60 58 57 64 73 73 66 58 46 32 22 15 12 11 11 11 12 11 8 6 5 5 5
61 48 37 33 35 44 47 42 39 40 45 46 41 39 35 36 47 61 71 73 70 70 69 70 71 71 73 74 76 81 85 87 89 87 84 81 83 83 62 35 22 25 39 47 47 55 66 80 92 86 77 77 73 68 72 76 72 67 61 53 49 49 48 50 54 52 48 44 47 56 59 54 50 49 54 63 66 63 63 64 66 63 50 32 22 18 16 14 13 12 13 13 11 8 5 4 4
64 70 59 48 44 41 43 47 44 40 40 38 36 43 45 43 48 56 63 72 76 77 77 75 75 75 76 78 81 86 88 88 88 88 89 88 86 85 72 49 28 27 54 74 65 58 64 77 93 93 83 82 81 79 83 87 83 74 66 59 56 54 52 55 57 49 36 30 33 43 48 48 46 46 51 58 60 56 57 64 70 69 60 46 36 31 29 25 19 16 14 15 14 12 10 7 6
47 63 63 63 67 58 47 44 46 47 47 43 38 41 47 49 53 56 60 71 77 79 81 80 79 78 77 78 80 83 84 83 83 82 82 79 75 73 65 52 37 36 64 90 88 78 75 83 96 93 88 91 93 93 95 96 93 81 70 65 63 60 56 51 46 36 29 27 28 33 40 43 48 56 63 64 61 57 58 65 71 70 67 62 56 49 43 35 27 21 18 18 18 17 16 14 11
43 46 50 59 69 71 67 58 53 56 59 56 47 41 45 51 53 52 54 66 76 80 83 83 82 81 78 77 76 75 73 70 68 67 66 65 58 53 59 63 51 45 68 90 93 84 76 84 100 99 97 99 95 95 98 96 90 80 70 64 61 58 49 41 35 29 25 23 22 24 29 32 38 50 61 68 70 67 65 68 71 69 67 68 67 62 51 40 31 26 24 23 24 24 23 22 22
55 48 47 48 49 56 66 66 64 69 75 76 64 51 52 56 51 48 47 51 57 62 65 67 67 63 58 56 54 50 46 43 42 42 43 44 40 35 48 69 69 64 74 84 85 82 76 85 98 95 93 95 90 92 93 82 71 63 56 50 47 43 37 33 31 25 20 18 16 16 17 19 23 30 39 51 63 68 67 67 64 61 63 65 66 64 57 45 34 29 29 29 30 31 30 30 29
73 73 66 60 60 59 58 59 61 63 69 78 78 70 67 65 56 49 46 42 40 40 40 40 40 38 36 35 34 32 31 30 30 31 30 30 31 31 37 55 68 71 73 79 88 90 85 92 101 96 92 95 94 92 82 65 56 51 47 42 37 33 30 30 26 21 18 16 15 18 20 20 22 25 32 43 54 58 56 55 57 60 64 66 63 60 58 54 45 36 32 32 34 35 37 38 36
Wind_Speed
30 31 31 31 32 32 33 32 32 32 31 30 29 29 28 27 27 28 30 32 31 32 31 30 30 30 29 29 28 28 28 25 24 23 23 25 27 28 29 28 28 28 27 27 27 26 26 26 26 26 26 26 25 25 24 24 24 23 22 22 22 21 20 19 19 20 21 21 22 21 20 19 18 17 17 17 17 16 15 14 14 13 13 14 13 12 11 10 9 8 8 6 5 5 5 5 5
29 30 30 31 31 32 32 32 32 31 30 30 28 28 28 28 28 31 32 32 32 32 31 30 29 30 30 30 30 29 29 28 28 29 28 29 30 30 30 29 29 29 28 28 28 28 28 28 27 28 28 27 27 26 26 26 25 24 24 23 22 22 21 21 20 21 22 23 23 22 21 20 19 17 17 18 18 17 16 15 14 14 13 13 13 12 12 10 9 9 9 8 6 6 6 6 6
29 29 30 30 30 31 32 32 32 30 30 29 27 29 29 28 31 32 32 32 32 31 31 30 29 30 30 29 29 27 27 29 30 30 31 31 31 30 30 30 30 29 29 29 29 29 29 29 28 28 28 28 27 27 27 26 26 25 25 25 24 22 22 21 21 21 23 24 24 23 22 21 20 18 18 18 19 18 17 15 15 14 14 14 13 12 12 11 10 9 10 9 7 7 7 7 7
28 29 29 29 30 31 31 31 30 29 29 25 24 30 29 30 33 31 32 33 32 31 30 29 27 28 29 26 27 27 28 31 31 31 31 31 31 30 31 30 31 31 31 31 31 31 30 29 29 29 29 28 28 27 27 27 26 25 25 26 26 24 22 22 22 22 24 26 25 24 23 22 20 19 18 19 19 17 16 16 15 14 14 13 13 12 12 11 10 10 10 10 8 8 8 8 8
27 28 28 29 29 30 30 30 29 27 26 23 25 31 30 31 33 31 33 33 32 31 30 29 26 26 28 27 28 29 30 32 32 32 31 31 31 31 31 31 31 31 32 32 32 32 31 30 29 29 28 28 28 29 28 27 26 26 26 27 28 25 23 22 22 23 25 27 26 25 24 23 21 20 19 19 18 17 16 15 15 15 14 13 13 12 12 12 11 10 10 10 9 9 9 10 9
26 27 27 28 29 29 29 29 28 26 26 26 28 31 30 32 32 31 32 31 30 30 30 28 24 23 26 28 29 30 31 32 32 32 32 32 32 32 32 32 32 32 33 32 32 32 31 30 29 28 28 28 29 29 28 26 24 24 25 27 27 24 22 22 23 24 26 28 27 25 25 24 22 22 20 19 18 17 16 16 15 15 14 13 13 13 12 12 11 10 10 11 11 11 11 11 10
25 26 27 27 28 28 28 28 27 27 27 27 29 29 30 31 31 30 30 30 29 28 29 26 23 21 23 26 28 29 31 31 32 32 32 33 33 33 33 32 32 32 32 32 32 31 31 30 29 28 27 28 28 26 25 23 22 22 22 23 24 21 21 22 23 24 26 28 28 27 26 24 23 23 21 19 18 17 17 16 15 15 14 13 13 13 13 12 12 11 11 12 12 12 12 12 11
25 26 26 27 27 27 27 27 27 27 27 27 28 30 30 30 28 28 28 29 28 28 28 27 24 21 22 26 28 29 30 31 31 32 32 33 33 33 33 32 32 32 32 32 32 31 30 30 29 28 28 28 27 24 22 22 20 19 19 21 22 21 21 21 23 25 26 29 29 28 27 25 24 23 21 20 18 18 17 17 16 15 14 13 13 13 13 13 12 12 12 12 13 13 14 14 12
25 26 26 26 26 26 26 26 26 26 27 27 29 30 29 28 26 26 28 29 28 28 28 26 24 20 22 26 28 29 29 30 31 31 32 32 32 32 32 32 32 32 32 32 32 31 30 30 30 30 29 28 27 25 22 20 19 18 18 20 22 23 22 22 24 25 27 29 30 30 28 26 24 23 22 21 20 18 17 17 17 16 15 14 13 13 13 13 13 12 12 13 13 14 15 14 14
25 25 25 26 26 25 25 24 25 26 27 28 28 28 27 26 25 26 27 28 28 28 26 25 24 23 24 27 28 28 28 29 30 30 31 31 31 31 31 31 31 32 32 32 32 31 31 31 32 32 30 28 27 27 23 19 19 19 19 20 22 24 25 25 25 26 28 30 31 31 30 27 25 24 23 21 20 19 18 18 18 17 16 14 13 13 13 13 13 13 13 13 14 14 15 15 15
24 24 24 25 25 24 24 24 25 26 27 27 27 26 25 25 25 26 27 27 28 27 26 26 27 26 27 28 28 28 27 28 29 30 30 31 32 32 32 32 32 33 33 33 32 32 32 33 33 32 30 28 26 26 24 22 22 23 22 22 24 26 27 27 27 27 28 31 32 32 31 28 26 24 23 22 21 19 18 18 18 17 16 14 13 13 13 13 13 14 14 14 14 15 15 15 16
24 24 23 24 24 24 24 24 25 26 26 26 26 25 24 25 25 26 26 26 27 27 27 27 27 27 27 28 28 27 27 28 29 30 31 31 32 33 33 34 34 34 34 34 34 34 34 34 33 31 29 27 26 25 26 27 27 28 26 25 27 28 29 29 29 29 30 32 33 34 33 30 27 25 23 22 21 20 19 19 19 17 15 14 13 13 13 14 14 14 14 15 15 15 16 16 17
23 23 23 23 23 23 23 23 24 24 25 26 25 23 22 24 25 25 25 26 26 27 28 28 27 26 26 26 26 26 26 27 29 29 30 31 32 33 34 34 34 34 34 34 34 34 34 34 32 31 29 27 26 26 27 28 28 28 28 28 29 29 30 30 31 32 33 34 35 35 33 30 27 25 23 22 21 20 19 19 19 17 15 14 14 13 13 14 14 14 15 15 16 16 17 17 18
23 23 23 22 21 22 22 22 22 22 25 26 23 22 22 23 24 24 25 26 26 26 27 27 27 26 25 25 26 26 27 28 29 29 30 31 32 33 33 34 34 34 34 34 34 34 34 33 32 31 29 27 26 25 26 26 25 25 26 27 28 28 29 31 33 35 36 36 36 35 31 28 26 23 22 22 21 20 19 19 18 17 16 15 15 15 14 14 15 15 15 16 17 17 17 18 19
23 22 22 21 20 21 20 21 21 22 26 24 22 22 22 23 23 23 24 25 26 26 26 27 27 25 24 25 26 27 28 28 29 30 30 31 32 32 33 33 34 34 34 34 34 34 34 33 32 30 28 27 25 24 24 24 23 24 24 24 25 24 27 31 33 35 37 34 33 31 28 26 24 22 22 22 21 20 19 19 18 17 17 16 16 16 16 15 15 16 16 16 17 18 18 19 20
22 22 21 20 19 19 19 21 20 21 26 23 21 22 22 23 21 22 23 24 25 26 26 26 27 25 24 25 26 27 28 28 29 29 30 30 31 31 32 33 33 33 33 33 33 33 32 30 28 26 25 24 23 22 22 23 23 23 22 23 22 19 22 28 31 34 33 29 27 26 25 24 23 22 22 22 20 19 19 19 18 17 17 17 17 16 16 16 15 16 16 17 18 18 19 19 20
21 21 20 17 17 18 18 20 21 23 26 23 22 21 21 22 21 21 22 23 25 25 26 26 27 27 26 27 27 27 28 28 28 28 29 30 30 31 32 32 33 33 33 33 32 32 31 29 28 26 23 22 20 20 21 21 22 22 22 22 20 17 19 22 27 30 26 23 23 23 23 23 23 22 22 21 20 20 19 18 18 17 17 16 16 16 16 16 16 16 17 17 18 18 19 20 21
20 20 18 15 16 18 19 21 23 25 25 23 22 21 21 21 21 20 20 23 24 24 26 26 27 27 28 28 27 28 28 28 28 28 29 30 30 31 32 32 32 32 33 33 31 30 29 29 27 24 22 20 19 20 21 20 20 20 20 20 20 18 18 19 22 23 21 22 23 23 23 23 22 22 22 21 21 21 19 18 17 17 16 16 16 16 16 16 16 16 17 17 18 18 19 20 21
20 19 16 15 17 19 20 22 24 24 24 22 21 20 21 21 20 20 19 22 23 23 25 26 27 28 29 28 28 28 28 28 28 28 29 30 30 31 31 31 31 32 32 31 29 28 27 26 24 22 19 18 18 18 19 19 18 17 17 21 22 19 21 22 21 20 20 23 24 24 24 23 23 22 22 22 22 21 19 18 17 17 17 17 16 16 16 16 16 16 17 17 17 17 18 19 20
21 19 16 16 18 19 20 22 23 23 22 21 20 19 20 20 20 18 18 20 22 23 24 26 27 28 28 28 29 28 28 28 28 29 29 30 30 30 30 30 31 31 30 28 27 25 24 23 21 19 17 17 18 17 17 18 18 17 20 24 21 18 21 21 18 18 19 22 24 24 24 24 24 23 23 23 21 19 18 17 16 16 17 17 17 17 16 16 16 16 16 17 17 17 17 18 19
22 19 18 18 18 19 20 22 23 23 21 20 19 17 18 18 18 17 15 17 19 20 23 25 27 28 28 28 28 28 27 28 28 28 29 29 29 29 29 30 29 28 27 25 24 23 21 20 19 17 16 16 17 17 17 18 18 19 22 22 17 16 17 14 15 16 18 22 24 24 24 24 25 24 23 22 20 18 17 17 16 15 16 17 16 17 17 16 16 16 16 16 17 17 17 17 18
21 19 19 18 18 20 21 22 22 23 21 19 18 16 16 15 17 16 15 17 18 19 21 23 24 26 27 27 26 26 26 27 26 26 26 27 28 29 29 28 27 25 23 21 20 20 19 18 17 15 14 15 16 17 15 14 16 19 19 16 13 14 14 12 14 17 20 22 21 20 21 23 25 26 24 21 18 16 17 17 16 16 16 17 17 17 17 17 16 15 15 16 17 18 17 17 17
21 20 20 19 21 22 23 23 23 22 20 19 18 16 15 15 16 16 16 18 19 20 22 22 23 24 24 23 23 24 24 24 24 24 25 27 28 28 27 25 24 22 20 18 18 19 18 17 16 14 13 14 15 14 13 13 14 16 15 14 15 17 18 16 15 17 19 17 17 17 18 20 20 21 21 18 17 16 16 17 16 16 16 17 17 18 17 17 16 16 16 16 17 17 17 17 17
24 22 20 21 23 23 24 24 23 22 20 20 19 17 16 16 16 16 18 18 18 20 21 22 23 22 21 21 21 22 22 23 23 24 25 27 27 26 24 21 20 19 18 18 18 18 18 17 15 13 13 13 14 14 16 15 15 15 14 15 17 19 20 19 18 18 17 15 18 18 17 17 15 16 18 16 16 17 17 17 17 16 16 17 17 18 17 17 16 16 16 16 17 17 17 17 17
25 23 22 23 23 24 25 24 22 21 21 21 19 18 17 17 17 17 17 17 17 19 20 20 20 20 19 20 20 21 22 22 23 24 25 26 25 23 20 18 18 19 19 18 18 17 18 17 14 12 12 12 14 16 17 17 16 16 15 15 16 17 18 19 19 17 17 18 20 19 17 18 16 17 19 17 16 17 16 16 16 16 16 17 17 17 17 17 16 16 16 16 16 16 16 17 17
26 24 25 24 24 25 26 24 22 21 22 21 19 19 18 17 17 17 16 16 17 18 19 20 19 19 19 19 20 21 21 21 23 24 24 24 23 20 17 17 17 19 19 17 17 17 18 17 14 13 13 13 15 15 15 17 17 16 16 17 18 18 17 18 18 17 18 19 18 18 18 18 17 17 18 16 15 15 15 15 15 15 16 17 18 17 17 16 16 16 16 16 16 16 16 16 17
27 26 26 25 25 25 26 24 22 22 22 21 21 20 19 18 17 17 17 16 17 18 19 19 19 19 19 19 20 21 20 21 23 23 23 22 19 17 17 18 20 21 17 14 17 18 19 18 15 13 13 14 14 14 14 15 15 15 17 18 17 17 16 16 15 16 17 15 15 17 17 17 17 17 17 15 13 14 14 14 14 14 15 16 17 17 16 15 15 16 16 15 15 15 15 15 16
27 27 27 25 25 25 26 24 22 22 22 22 22 21 20 18 17 18 17 16 17 17 18 18 19 19 19 20 20 20 20 21 22 21 20 18 15 17 18 19 21 18 13 14 18 18 16 15 13 12 12 13 13 13 12 13 13 15 16 15 13 13 13 13 13 14 14 12 13 15 15 16 16 16 15 13 12 12 12 12 13 13 14 14 14 14 14 15 15 15 16 15 14 14 14 15 15
28 28 27 26 25 26 26 24 23 23 23 23 22 21 20 19 18 18 16 16 17 16 17 17 17 18 18 19 20 19 20 21 21 20 17 15 16 18 17 17 15 12 11 15 17 13 12 13 13 12 11 11 12 13 13 14 14 14 14 15 14 14 13 13 12 12 11 10 10 12 14 13 13 13 12 11 10 10 10 10 12 13 12 12 14 14 14 14 14 14 14 14 14 14 14 15 16
28 28 28 27 26 27 27 25 24 23 23 23 22 22 21 20 19 18 17 17 18 17 17 17 16 16 17 18 19 20 21 22 20 17 15 15 17 17 14 13 12 11 12 15 15 12 12 13 13 12 12 12 13 15 16 15 15 15 15 16 16 15 14 13 11 10 10 10 9 10 12 11 11 11 9 9 9 9 9 9 11 12 12 12 13 13 13 13 13 14 14 14 15 15 15 15 15
29 28 28 28 27 28 27 26 24 24 24 23 24 23 22 23 22 19 19 19 19 20 18 16 15 16 17 19 20 21 22 21 19 16 14 15 18 17 12 12 15 16 14 14 13 11 12 12 12 13 13 12 13 14 15 15 15 16 16 16 15 15 14 12 10 10 10 10 8 9 9 9 9 9 8 7 7 7 7 8 10 12 12 12 12 13 13 13 14 14 14 14 15 16 16 16 15
28 28 29 29 29 30 28 25 25 26 26 25 25 23 23 26 23 20 21 21 20 20 18 17 16 17 18 19 21 21 22 21 19 16 15 16 19 18 14 13 17 18 14 12 11 10 10 10 12 15 13 12 12 11 12 14 15 15 16 16 15 15 13 11 10 9 9 8 7 7 7 8 8 7 6 6 6 7 8 8 9 10 11 12 12 13 13 13 14 14 14 14 15 16 16 16 16
28 27 29 30 29 30 28 26 27 28 27 27 26 25 27 29 23 21 23 22 22 21 19 18 17 18 20 20 22 22 22 22 20 17 15 17 19 19 16 15 18 18 15 12 10 9 8 8 10 11 11 12 13 12 11 12 13 14 14 15 16 16 14 12 10 9 8 7 6 6 7 8 8 8 6 5 7 8 8 8 9 9 10 12 13 14 13 14 14 14 14 14 15 15 15 15 15
27 26 28 29 29 31 29 29 30 29 29 28 28 27 29 29 23 23 25 24 24 23 21 20 20 20 21 22 22 22 23 23 21 18 17 18 19 20 18 16 18 20 17 13 11 12 10 9 8 8 9 12 14 14 12 12 13 14 13 15 17 16 14 13 12 11 9 8 7 7 8 9 8 8 6 5 6 7 8 8 9 9 10 11 13 14 14 14 15 15 15 14 15 15 15 14 14
26 26 28 28 29 30 30 31 31 30 31 30 29 28 29 28 24 25 26 25 26 25 24 22 22 23 23 23 24 23 25 25 22 20 18 19 19 20 19 18 18 21 19 14 13 14 12 10 9 8 9 12 14 14 13 14 15 13 13 16 18 17 15 13 13 13 11 10 9 8 8 9 8 7 6 6 6 7 7 8 9 10 10 11 13 14 14 15 14 14 15 15 15 15 15 15 15
26 27 29 29 29 29 31 33 32 31 31 30 30 29 27 27 26 26 28 28 27 27 25 24 24 25 24 25 25 25 26 26 24 22 21 20 21 21 20 19 20 21 21 18 14 13 12 11 11 10 9 11 12 13 13 14 13 12 14 17 18 17 16 14 13 12 12 11 10 9 9 9 9 8 7 7 7 7 7 8 9 10 11 12 13 15 15 16 16 15 15 16 15 15 15 16 16
27 28 28 29 29 30 32 34 32 31 30 30 30 29 27 27 27 27 29 29 28 27 26 26 25 25 25 26 26 26 27 26 25 24 23 22 22 21 20 20 20 20 21 20 18 16 15 13 13 11 9 10 10 11 12 12 12 13 16 18 17 16 15 14 13 12 11 11 11 11 10 10 10 9 9 8 8 8 8 9 10 10 11 12 14 15 16 17 17 17 17 16 16 16 16 17 17
26 26 27 28 28 29 32 33 31 30 30 30 30 28 27 27 27 28 29 29 28 28 27 27 25 24 25 26 26 27 27 26 25 23 23 23 23 22 20 19 19 20 20 20 20 20 17 14 15 13 11 11 11 11 12 12 13 15 16 17 16 15 14 13 13 11 11 11 10 10 10 10 11 11 10 10 9 9 9 9 10 10 11 12 14 15 15 17 18 18 17 17 16 17 17 17 17
25 25 25 26 26 29 31 30 30 29 29 30 29 27 27 26 27 27 28 27 27 27 27 26 24 24 25 25 26 26 26 25 22 21 22 23 23 22 21 20 20 21 21 20 21 21 19 16 15 14 12 13 13 13 13 14 15 16 16 15 14 13 13 12 11 11 12 12 11 9 8 8 9 10 11 11 11 10 10 10 10 11 12 12 14 15 16 16 17 17 16 17 17 17 17 18 18
23 23 23 24 26 26 26 28 29 28 28 28 26 25 25 26 27 27 25 25 25 24 23 23 23 24 25 25 25 24 24 22 20 20 22 23 23 23 22 21 21 21 21 21 21 21 20 17 15 15 14 15 16 16 15 16 16 16 14 13 13 12 12 12 12 12 12 12 11 10 9 8 7 7 9 10 11 12 12 11 11 11 12 13 14 15 16 16 16 16 16 17 17 17 18 19 20
22 21 21 23 24 24 26 28 27 26 26 25 23 23 24 25 25 24 23 22 21 20 19 20 22 24 24 23 23 23 22 20 19 20 22 23 23 22 21 20 20 20 20 20 20 19 20 19 17 17 17 18 19 19 18 18 17 16 14 13 12 12 12 13 13 13 12 12 11 10 8 8 6 5 6 8 10 12 12 12 12 12 13 14 15 15 16 17 17 16 16 17 17 17 18 19 20
20 19 19 21 22 24 27 26 23 23 23 22 20 20 22 22 21 20 20 18 16 17 18 19 20 21 21 21 22 20 18 17 18 21 22 22 21 19 18 17 17 17 18 17 17 17 17 18 18 18 19 20 20 20 19 19 18 16 15 14 12 11 12 13 14 14 13 12 11 10 9 8 7 7 7 8 9 10 12 13 13 12 13 14 15 16 16 17 17 17 17 18 18 18 18 18 19
18 17 18 20 21 23 24 23 21 20 19 19 18 17 18 20 20 19 18 17 16 16 16 17 18 18 19 20 18 17 16 16 19 21 22 20 18 15 13 14 14 14 15 15 15 15 16 18 19 20 21 21 21 21 20 19 18 16 15 14 12 11 12 13 14 13 13 12 11 11 11 10 10 11 11 10 10 11 12 13 13 13 13 13 14 15 16 17 18 19 18 19 19 19 19 19 20
17 17 18 20 20 21 22 22 20 18 17 17 18 19 18 19 20 18 16 16 16 16 16 17 17 18 18 18 17 16 17 18 20 21 20 19 17 14 13 12 11 11 13 14 14 16 17 18 20 21 21 21 22 22 21 19 17 16 16 15 13 12 13 14 13 12 11 11 12 13 13 13 13 13 13 12 12 12 12 12 13 13 13 13 14 15 16 17 18 19 20 20 20 20 20 20 21
17 17 18 19 19 20 20 20 19 19 18 16 18 20 19 19 20 18 16 17 16 17 19 18 18 18 18 18 18 18 19 19 20 20 19 18 16 15 13 12 11 11 13 15 16 17 18 19 20 21 21 22 22 22 21 19 17 17 16 15 14 13 14 14 13 11 11 12 14 15 15 15 15 15 15 15 14 13 13 13 13 14 15 16 16 16 16 17 18 19 20 21 21 22 21 21 21
17 17 18 19 19 19 19 18 17 17 18 18 18 19 19 20 21 18 18 19 18 18 20 20 20 20 20 21 20 20 19 18 19 19 18 17 16 15 14 13 13 13 15 17 18 19 20 20 21 22 22 23 23 23 21 19 18 17 17 16 15 15 15 15 14 14 13 14 15 17 17 17 17 17 17 16 16 15 15 16 16 18 19 20 19 18 17 17 18 19 20 21 22 23 23 23 22
17 17 18 18 18 18 17 17 16 17 18 19 18 18 20 20 20 20 20 20 20 19 20 20 20 20 21 21 21 20 18 16 17 18 18 18 17 16 15 14 15 16 18 19 21 22 23 24 25 26 26 26 25 24 22 20 19 18 18 17 16 16 16 16 17 17 17 18 19 20 20 20 20 19 19 18 17 17 17 18 19 19 20 20 20 20 19 18 19 19 20 21 22 23 24 24 24
17 16 16 16 16 16 16 16 17 18 18 18 17 19 22 19 19 21 21 20 21 21 21 22 21 21 21 20 20 19 17 16 16 16 17 17 17 17 17 17 18 19 21 23 26 28 28 28 28 28 29 29 27 24 21 20 20 20 18 18 17 17 17 17 18 19 19 20 21 22 22 23 22 22 21 21 20 20 20 20 20 20 20 20 20 20 19 18 18 18 19 20 21 23 24 25 25
17 16 15 15 15 16 17 17 18 19 20 19 18 20 23 22 23 23 20 21 23 23 23 24 24 23 21 20 20 18 17 16 15 15 15 16 17 17 18 19 22 24 26 29 31 30 28 26 24 25 28 28 25 21 19 20 20 19 18 17 18 18 18 18 19 20 21 22 23 24 25 25 25 24 24 24 23 23 23 23 22 21 20 20 19 19 19 18 17 17 18 19 20 21 23 24 25
16 16 15 15 15 16 17 18 18 19 20 21 20 21 22 24 28 27 22 23 25 25 26 26 26 25 22 21 20 19 18 17 17 16 17 18 19 19 20 23 27 29 29 31 30 27 25 23 21 23 27 26 23 20 19 20 20 19 19 19 18 18 19 20 20 21 21 23 24 25 26 25 25 25 26 25 24 24 25 24 22 21 20 19 18 17 17 16 16 16 16 17 19 20 22 23 24
16 15 15 16 16 16 17 18 19 19 20 20 21 23 24 26 29 27 25 25 26 28 28 28 28 27 25 23 21 21 20 20 19 19 20 22 23 23 24 27 29 29 29 29 28 27 27 25 23 24 27 27 26 24 22 22 22 21 21 20 18 19 20 20 21 22 23 24 24 25 25 25 25 25 26 26 24 24 23 21 20 19 19 19 17 16 15 15 15 15 15 16 18 20 21 23 24
17 18 18 19 19 19 19 19 19 18 19 20 22 24 25 27 27 25 25 26 27 29 30 30 30 29 28 26 24 23 23 23 23 24 24 25 26 28 30 29 28 30 32 30 26 26 28 29 27 26 28 30 30 26 22 22 23 23 23 21 20 20 20 20 20 21 22 22 22 22 21 21 21 22 22 22 21 20 18 17 17 17 18 17 16 15 15 14 14 14 14 15 16 18 20 21 22
19 20 21 20 19 20 19 19 21 20 20 22 22 23 25 26 27 26 26 27 28 30 30 30 30 30 29 28 27 26 25 25 26 27 27 28 30 33 35 32 28 31 35 35 29 25 26 30 31 28 26 29 31 27 23 22 23 24 24 23 21 20 19 18 17 17 18 18 18 18 18 18 18 19 19 18 17 16 16 16 16 17 17 16 15 15 14 14 14 14 14 14 15 17 18 19 20
21 21 21 19 18 21 21 20 21 21 22 23 23 23 24 24 26 29 30 30 30 31 31 31 31 31 31 31 30 30 29 29 29 30 31 33 34 35 37 35 32 33 36 39 36 27 25 30 35 33 28 28 30 28 24 22 21 21 22 23 22 21 19 18 17 16 17 16 16 16 17 18 18 18 18 17 16 16 17 17 17 17 16 16 15 15 14 13 13 13 13 14 14 16 17 17 18
24 23 22 19 18 22 23 23 22 21 21 22 23 23 23 23 25 28 30 32 33 33 33 33 33 33 33 33 33 33 33 33 33 34 35 35 36 38 39 39 37 35 36 40 40 31 28 31 33 32 30 28 27 27 25 22 20 20 20 21 21 20 18 16 16 16 16 16 16 15 16 17 17 17 16 16 16 17 18 18 18 18 17 16 16 15 14 13 13 13 13 13 14 15 16 16 17
27 26 25 24 23 22 22 22 22 21 20 22 23 23 22 24 26 26 25 28 32 33 34 34 34 35 34 34 35 35 35 35 35 36 37 37 37 38 40 42 41 37 35 37 41 36 31 30 29 25 25 26 25 26 25 23 22 20 19 19 18 17 16 16 16 16 15 15 15 15 16 17 17 17 16 16 16 17 18 18 19 19 18 17 17 16 16 14 13 12 12 13 14 15 15 16 16
27 27 27 28 27 25 24 23 22 20 19 19 21 21 22 23 24 23 23 24 27 30 32 33 33 34 34 34 34 34 33 33 33 34 36 37 35 33 34 40 44 43 39 38 42 42 37 33 30 26 26 28 28 27 25 22 20 19 18 17 17 17 16 16 16 15 15 15 15 15 16 17 18 18 18 17 17 17 18 19 20 20 20 19 18 17 17 16 15 14 13 14 15 15 16 16 16
24 24 24 24 24 25 26 26 24 24 22 20 18 19 20 20 20 21 21 22 24 26 27 28 29 30 30 30 30 30 30 30 30 31 32 33 32 29 28 32 38 42 41 39 41 42 39 36 32 29 29 29 27 23 21 19 19 18 17 17 17 17 17 17 16 15 15 15 15 15 15 15 15 16 17 18 18 18 18 19 20 21 21 21 19 18 17 17 17 16 15 15 15 16 17 18 18
Wind_Direction
260 258 257 256 256 256 255 254 254 254 253 253 252 252 252 250 249 249 247 248 250 253 254 255 257 258 259 261 262 262 263 263 262 261 261 263 264 265 266 266 267 267 267 266 267 268 269 271 272 274 276 279 281 284 288 291 296 301 304 305 306 304 300 297 296 296 295 292 289 287 286 287 290 291 292 293 295 297 299 301 303 304 302 299 297 297 296 291 285 283 279 268 257 253 243 235 245
259 258 256 256 255 255 254 253 253 254 252 252 251 251 251 250 249 247 247 249 250 253 256 257 259 260 262 263 264 265 265 263 261 261 260 260 262 263 264 265 265 265 266 266 267 268 269 271 272 274 277 280 282 285 288 292 296 300 301 304 306 303 297 293 291 291 290 287 284 283 282 285 288 288 289 291 292 294 296 299 301 300 297 293 293 293 293 289 281 277 276 265 252 248 241 236 243
259 257 256 255 255 254 254 252 252 253 252 252 253 251 251 250 249 248 249 250 252 255 257 260 261 262 263 264 264 263 262 262 263 264 263 263 263 263 264 264 264 265 266 267 268 270 271 272 273 275 278 282 284 287 290 293 296 298 299 301 302 298 293 289 288 288 286 283 280 280 280 282 285 284 285 287 288 290 294 297 298 296 293 290 288 289 288 286 281 276 275 267 255 250 244 238 243
258 257 255 255 254 254 253 253 252 252 253 253 252 251 249 250 250 250 251 251 253 256 258 260 261 262 263 261 262 261 260 262 263 264 264 265 265 264 264 263 264 265 266 268 270 272 273 274 275 277 280 284 287 289 291 292 293 295 294 295 297 293 286 283 284 284 281 276 275 275 276 278 280 280 281 283 284 287 290 293 294 292 289 286 284 283 282 280 278 273 268 263 253 247 243 239 243
258 257 256 255 254 254 253 253 252 251 251 246 244 249 250 250 252 251 251 252 254 256 258 260 259 260 262 260 261 261 261 262 263 264 264 264 264 264 263 263 265 266 268 271 272 274 275 277 278 281 284 288 291 292 292 291 290 291 289 290 294 288 280 278 279 280 277 272 269 270 271 272 275 274 277 280 281 283 286 287 288 288 286 282 279 277 276 275 273 268 261 256 246 240 238 238 240
258 256 255 254 253 253 252 251 251 249 247 242 243 249 250 251 252 252 253 254 255 257 258 260 258 257 260 260 260 260 261 261 261 263 263 263 263 263 264 265 266 268 270 272 274 275 277 279 282 285 289 294 296 295 292 290 289 288 285 286 291 285 277 275 275 277 277 271 266 265 266 267 269 270 274 277 278 280 281 282 283 284 284 279 276 273 271 270 269 263 257 252 243 235 234 235 237
257 255 254 253 251 251 250 250 249 247 245 244 246 249 249 250 251 253 254 255 256 257 258 258 255 254 257 259 260 259 260 260 260 261 261 262 263 264 265 267 268 270 272 273 275 276 278 281 284 288 293 298 299 299 296 290 286 284 280 282 287 284 278 275 273 274 274 270 264 261 262 263 264 266 271 274 274 276 277 279 280 281 280 278 275 273 270 269 267 261 255 250 242 235 232 232 234
258 255 252 251 250 249 249 248 247 246 246 246 247 248 249 251 252 254 255 255 256 255 256 256 254 253 254 257 258 258 259 260 261 261 262 263 264 265 266 268 269 271 272 274 276 278 281 284 288 291 296 298 298 299 298 290 283 280 273 276 284 283 279 277 273 271 270 267 262 260 259 259 259 262 268 271 271 272 274 278 280 281 280 279 275 272 269 266 264 260 255 249 242 235 231 229 230
259 256 253 251 249 247 246 246 246 246 246 246 247 249 251 252 252 253 253 255 255 255 256 254 252 250 252 256 257 259 260 261 262 263 263 264 265 266 267 268 270 272 274 277 279 282 286 290 294 297 298 299 296 294 297 292 284 281 274 274 281 282 280 279 275 270 268 265 261 261 259 256 256 260 265 268 269 271 273 277 281 283 282 279 276 272 268 264 261 258 254 249 243 236 232 228 228
258 255 253 251 249 246 244 244 244 244 244 246 248 250 251 251 251 251 253 254 256 256 254 252 251 249 251 256 259 261 261 261 263 263 264 265 266 267 268 270 272 275 277 280 283 286 291 295 298 300 301 301 296 290 292 292 286 284 281 278 281 282 280 281 279 273 268 264 260 260 260 255 254 259 263 266 268 270 273 278 281 282 281 278 276 273 269 265 261 258 253 249 243 236 233 229 228
256 254 252 251 249 245 243 241 241 242 244 247 248 249 250 250 250 250 251 253 255 256 254 254 255 254 254 256 259 261 261 261 262 262 264 265 266 268 269 271 273 276 278 282 286 289 293 296 298 300 301 301 296 288 286 287 287 287 284 278 278 279 278 278 278 275 270 265 259 257 258 254 253 258 261 264 267 269 273 278 280 279 278 277 275 274 271 268 263 258 252 247 242 237 236 232 229
253 251 250 250 249 246 244 241 241 243 245 246 246 246 246 247 248 249 250 251 253 254 255 255 255 255 256 257 259 260 261 261 262 262 264 265 267 268 270 272 274 277 281 286 290 291 294 296 299 300 300 298 294 288 285 285 285 284 279 272 272 273 274 276 276 273 268 263 257 253 252 249 251 257 260 263 266 269 273 278 279 277 276 276 276 274 272 269 264 258 252 247 241 237 236 233 230
250 249 247 247 248 248 246 245 246 247 247 246 246 245 243 244 246 247 249 251 251 252 255 255 255 255 256 258 259 260 260 261 262 264 265 266 268 270 272 275 278 282 287 290 292 294 296 298 300 300 299 297 294 291 289 286 283 279 272 267 268 268 269 274 275 272 265 258 254 249 246 247 251 255 258 263 266 270 275 278 278 278 277 275 274 272 270 268 265 259 254 248 241 236 234 232 232
249 248 246 245 245 246 247 247 248 248 248 248 247 244 242 241 242 244 246 249 250 250 253 255 256 256 255 256 257 258 259 260 262 264 266 269 271 275 278 281 285 288 291 293 294 296 298 300 301 301 301 300 299 297 293 289 284 277 270 265 262 261 264 268 268 266 259 252 249 247 247 250 253 254 258 264 268 272 276 278 279 279 278 274 270 267 265 264 262 259 254 249 242 236 232 232 233
247 246 245 243 241 244 244 245 248 248 250 250 246 244 242 241 241 240 242 246 249 250 252 254 257 256 255 255 255 256 258 260 263 265 268 273 277 280 283 287 290 292 294 294 295 298 300 301 302 303 303 304 304 302 298 293 284 274 266 260 255 254 257 259 257 255 251 248 248 249 251 252 251 253 259 264 269 273 275 276 277 277 275 271 267 264 262 260 259 259 255 251 244 237 233 232 233
245 244 243 241 239 240 240 244 245 245 250 250 246 244 243 243 241 239 239 243 247 250 250 251 255 255 252 254 256 258 260 262 265 269 274 278 281 284 288 290 292 294 295 294 296 301 303 302 304 305 305 308 308 304 302 294 280 266 257 253 248 244 246 251 254 252 249 247 248 248 248 248 250 254 259 264 269 271 273 275 275 274 272 269 267 264 262 261 258 257 255 251 245 239 235 232 234
242 243 241 238 237 237 237 240 239 241 249 248 245 244 243 244 242 240 240 241 243 247 248 247 251 253 253 255 257 259 261 264 269 275 279 281 284 287 289 291 294 294 294 294 296 300 302 301 303 306 308 311 308 304 302 290 275 262 256 254 245 239 241 246 251 251 247 243 242 243 245 248 251 255 260 264 268 270 272 273 273 271 268 267 267 265 265 263 259 256 253 250 247 242 238 235 235
241 240 238 233 232 232 231 236 238 242 248 246 244 243 242 245 244 242 242 243 243 245 248 248 249 252 255 256 258 260 263 268 274 278 280 283 286 288 290 292 294 295 296 297 298 298 298 299 301 303 306 308 303 301 296 282 271 264 260 254 248 247 245 241 241 242 241 240 242 244 248 251 253 256 260 264 267 271 274 273 271 268 267 266 265 265 265 263 260 256 252 249 247 244 242 239 238
239 237 233 227 227 229 230 236 242 245 247 246 244 243 242 244 245 243 241 245 246 247 248 249 250 251 253 255 257 260 266 272 276 279 282 285 287 289 292 294 295 297 298 299 301 299 299 299 300 300 302 301 294 296 289 272 262 257 255 251 251 255 250 241 235 237 241 243 246 249 252 254 256 259 262 265 270 274 276 274 273 271 269 267 264 263 262 263 260 257 254 251 248 245 244 242 241
238 234 228 224 225 227 229 236 242 245 246 247 244 242 244 244 245 245 243 247 251 252 251 250 249 250 251 253 257 262 268 273 276 279 283 286 288 290 293 296 298 298 299 300 301 299 298 297 297 296 294 291 287 289 276 255 247 246 251 252 250 250 245 237 232 240 247 247 251 253 256 258 259 260 263 267 271 274 276 274 274 271 268 265 262 261 260 261 261 257 255 252 249 245 243 242 241
237 233 226 224 225 223 228 235 241 245 246 246 245 243 245 247 250 249 245 248 251 253 254 252 251 251 252 254 259 266 271 274 276 279 283 285 287 289 293 297 298 298 299 299 297 295 295 293 292 288 283 283 281 275 255 237 242 246 245 247 242 233 232 230 233 245 252 252 253 255 259 262 263 264 266 269 271 272 272 271 269 265 264 261 258 256 257 258 258 256 253 250 247 244 240 239 239
236 232 228 225 223 223 228 234 238 242 243 244 245 242 244 248 252 251 245 243 241 242 249 254 255 255 256 260 266 270 272 273 275 278 281 283 285 289 293 296 296 296 295 293 290 288 286 283 281 275 272 274 270 262 245 234 246 241 232 235 231 227 233 239 243 248 252 251 251 256 263 266 269 268 266 268 270 269 267 265 263 260 260 259 254 252 253 255 256 256 253 250 246 243 239 235 233
232 229 227 222 222 225 229 232 234 239 241 242 243 241 240 242 246 247 244 242 242 242 247 253 257 259 261 265 268 268 268 269 272 276 279 281 284 289 293 295 293 290 287 283 279 276 274 269 266 262 261 262 259 255 244 241 245 232 224 233 237 238 241 247 250 249 250 248 251 259 263 267 271 267 263 266 267 266 262 260 259 257 256 255 252 250 251 254 255 255 253 251 248 245 240 235 231
230 227 225 223 224 226 229 231 231 235 240 241 241 240 237 238 240 242 244 245 247 249 251 254 258 262 264 265 265 264 265 267 271 274 277 281 285 289 292 290 285 281 278 272 268 266 263 257 254 254 256 253 249 245 237 235 236 231 231 238 244 246 245 250 253 250 250 254 260 262 263 266 269 270 270 270 265 263 261 260 259 258 257 255 252 249 249 251 251 252 253 253 251 249 244 239 236
229 225 224 224 224 225 230 231 229 231 238 239 239 239 238 237 237 239 244 248 249 251 255 256 259 262 263 263 262 263 265 269 272 275 277 280 283 288 287 280 275 274 270 266 265 263 258 254 254 254 251 244 240 239 233 229 228 229 232 234 243 249 251 253 252 252 256 260 263 265 268 267 268 277 278 270 264 264 264 264 263 262 259 257 255 252 249 249 249 250 251 251 251 250 247 242 240
229 224 224 223 222 226 230 230 227 228 233 238 238 238 238 235 236 240 241 245 247 249 253 256 258 259 261 262 262 264 266 270 273 274 277 279 283 285 279 273 268 264 263 268 271 266 259 252 248 248 244 239 239 239 234 227 224 229 237 238 242 247 250 251 252 257 261 264 268 270 272 271 272 280 280 274 271 270 269 268 268 266 262 258 255 255 254 253 251 249 248 248 249 248 247 244 242
230 226 226 223 222 227 231 229 226 227 231 236 237 235 237 234 236 241 239 240 243 246 251 254 256 257 260 262 263 265 266 269 270 272 276 280 283 278 270 264 259 263 269 276 272 262 257 249 239 240 241 241 240 233 225 222 227 241 249 249 247 246 246 251 255 260 265 271 276 275 276 278 277 280 282 280 279 278 275 272 271 270 267 263 259 256 256 255 252 250 247 245 245 246 245 245 243
232 229 228 224 223 227 231 230 226 227 228 232 235 235 237 236 236 240 238 239 241 243 248 251 254 256 258 260 261 263 263 263 265 271 276 277 272 262 261 257 256 270 280 272 267 259 256 249 236 234 234 237 234 225 226 233 241 247 250 252 253 252 252 258 259 261 273 283 285 283 281 281 280 281 283 282 278 277 278 275 275 273 268 265 263 261 258 256 252 248 245 242 241 242 243 244 242
233 230 229 226 224 227 230 230 227 226 228 231 235 237 239 239 239 240 240 242 242 242 246 248 251 253 254 256 257 258 257 258 263 269 269 262 257 257 264 262 256 268 264 259 266 263 259 248 232 230 228 231 230 232 244 248 245 240 243 253 259 262 264 267 265 267 279 283 283 283 280 280 285 286 283 279 271 269 274 277 275 273 268 264 264 265 260 255 250 247 245 242 240 240 242 244 243
233 231 229 227 225 227 230 230 228 227 229 231 233 236 239 242 240 240 240 241 244 244 245 247 248 248 247 248 251 252 252 257 262 263 256 250 256 262 268 265 259 265 259 260 267 264 260 248 230 227 229 235 239 243 248 245 241 241 248 258 261 264 268 272 273 275 279 278 276 276 278 283 290 294 288 279 269 266 274 278 276 273 270 266 263 262 259 253 251 252 250 247 244 241 241 242 244
232 229 228 227 224 227 228 229 230 228 229 229 231 232 235 240 238 237 240 239 242 244 244 244 244 242 241 242 245 248 251 257 261 257 250 249 256 262 259 255 261 266 262 262 261 254 255 250 240 235 235 243 243 240 241 241 243 247 256 263 265 267 269 272 275 276 279 282 281 278 281 284 290 297 293 279 269 269 277 279 279 277 271 265 258 258 261 260 258 258 256 252 248 244 242 242 244
230 227 226 225 224 227 228 227 230 230 228 227 230 230 232 238 236 235 240 239 239 242 241 240 238 236 237 239 242 247 252 258 260 254 247 247 253 258 252 250 261 263 255 253 254 252 252 250 248 243 238 240 237 234 240 245 248 252 260 268 272 273 271 272 272 271 275 281 283 282 280 277 277 281 280 278 278 279 284 283 282 279 269 261 257 259 262 263 263 263 262 260 253 249 247 246 246
228 224 224 224 222 227 228 227 230 231 230 228 229 230 232 236 234 234 240 241 240 241 240 237 235 233 235 238 242 247 254 259 259 252 246 245 250 255 250 249 261 261 249 244 251 251 245 243 245 240 233 230 231 237 240 238 247 256 262 268 271 271 269 270 269 268 271 272 268 262 259 260 261 264 266 272 278 282 286 285 284 280 267 257 259 265 265 265 266 263 260 261 257 254 253 251 251
226 223 223 222 220 225 227 228 229 231 233 232 230 230 233 236 234 235 239 240 241 241 240 238 236 236 236 239 243 248 254 257 257 251 247 246 249 254 253 251 261 263 252 242 249 249 243 244 241 225 215 219 226 236 233 231 250 263 266 268 267 263 260 259 259 261 263 265 262 253 248 249 252 256 257 255 261 269 275 279 278 275 268 260 261 266 267 265 264 261 257 259 260 258 257 255 253
222 220 221 220 219 222 226 228 227 229 232 234 232 232 235 237 234 235 238 239 241 242 241 240 238 238 239 241 243 247 253 256 254 252 251 251 252 256 257 256 258 261 258 250 247 243 240 244 244 225 206 208 219 227 229 238 254 265 266 266 263 260 257 255 254 254 257 263 265 264 261 261 260 257 254 250 249 252 258 267 269 269 268 264 265 267 268 266 261 258 258 260 261 260 258 256 255
219 217 217 217 216 218 224 227 226 227 232 235 236 235 236 237 234 234 238 239 240 242 241 239 239 240 241 242 244 247 252 254 253 253 254 255 257 257 259 259 256 258 261 260 254 243 243 248 243 238 222 211 212 218 226 238 250 259 261 262 261 260 259 259 260 261 266 275 279 282 281 278 274 267 259 252 248 245 246 253 260 266 268 267 270 269 267 268 266 262 261 261 260 259 258 257 259
221 219 217 216 216 217 223 227 226 227 231 235 238 238 237 237 235 234 237 239 240 241 241 240 240 241 242 243 244 247 250 251 252 253 255 257 258 259 259 257 254 256 259 264 264 255 255 250 234 235 241 229 219 220 228 238 247 254 257 259 261 261 261 263 268 271 276 285 290 292 291 288 283 275 266 257 252 247 243 245 251 259 265 268 271 269 266 267 267 265 263 262 260 258 257 258 260
225 222 220 219 218 220 225 228 228 229 231 235 237 238 238 238 237 236 237 239 240 241 242 242 241 240 241 241 242 244 246 248 251 252 255 257 259 260 258 254 252 254 255 260 263 257 253 245 235 242 250 242 237 234 237 244 250 254 256 260 264 265 265 264 267 273 279 285 289 288 287 286 284 278 272 265 258 253 247 245 247 253 259 265 268 268 267 265 264 264 263 262 260 257 256 257 260
228 225 224 222 222 225 229 231 232 231 232 235 237 238 239 240 239 239 238 239 240 241 243 243 239 235 235 235 237 240 242 246 250 251 254 257 258 259 256 253 251 251 250 251 253 250 247 244 241 246 247 243 244 244 244 249 252 255 258 264 268 267 265 264 267 274 280 286 287 281 272 270 276 278 275 271 266 261 256 250 248 250 254 260 265 267 268 268 267 266 263 260 258 256 255 256 259
228 227 225 225 226 228 232 234 234 234 234 236 238 240 241 240 240 241 241 241 242 242 242 239 232 227 226 228 231 235 239 244 248 250 253 254 255 256 255 253 249 246 244 243 243 242 243 243 239 240 244 244 244 245 249 253 254 255 257 261 265 265 264 266 270 276 281 285 283 277 268 261 266 278 281 279 275 270 265 259 253 250 250 254 259 264 269 271 271 269 265 262 258 253 252 254 257
227 226 224 226 229 228 230 234 235 236 238 237 238 239 240 240 241 242 241 241 240 237 233 229 226 224 222 223 227 233 238 243 246 248 249 250 251 252 252 250 246 243 240 237 236 236 238 241 240 241 245 244 244 246 249 253 254 254 254 255 257 261 264 268 272 277 281 281 275 270 268 264 262 274 286 286 283 278 273 267 260 254 251 251 254 259 265 268 270 269 268 268 264 257 254 255 255
227 225 223 227 229 228 232 237 237 239 241 238 233 235 240 242 241 239 236 233 229 226 224 222 223 223 220 221 228 236 240 242 243 243 244 244 246 248 249 247 244 242 239 236 234 234 236 239 242 244 245 244 245 247 248 250 252 252 253 253 254 260 265 270 275 278 279 274 267 264 265 268 276 284 289 287 286 283 276 271 266 260 256 255 254 256 260 264 267 268 268 268 268 265 263 261 258
228 224 221 225 228 230 234 237 236 236 240 237 227 223 232 238 236 233 230 224 218 217 219 220 221 219 219 223 229 235 236 236 237 238 237 237 240 244 246 245 243 238 236 236 235 235 236 238 241 243 243 243 244 245 247 249 250 252 254 256 259 265 269 272 275 276 274 265 256 256 259 265 281 292 293 287 283 282 277 271 269 266 263 261 260 258 259 261 264 267 268 268 267 267 265 262 261
226 222 220 223 227 230 233 234 232 229 230 230 220 215 221 230 234 232 229 225 220 217 216 218 219 217 217 219 221 226 230 231 231 231 230 230 234 239 241 241 241 238 233 232 234 236 237 238 240 241 242 242 243 244 245 246 248 252 255 259 265 270 273 274 272 271 267 257 250 253 256 260 272 287 290 285 279 277 275 274 273 275 273 270 268 264 263 263 263 265 268 269 270 269 266 264 263
221 220 219 221 224 227 230 230 230 227 226 224 219 218 217 225 234 232 228 228 225 221 216 213 214 212 208 209 213 220 225 225 227 231 231 229 233 238 239 238 239 239 234 231 232 233 236 237 239 240 240 241 242 242 243 243 245 249 254 260 264 267 271 270 267 268 267 261 258 260 261 262 268 277 284 284 279 275 274 275 279 284 286 282 277 272 269 268 267 266 267 269 271 272 271 269 265
218 218 218 220 222 225 226 226 228 228 227 224 222 220 213 216 227 227 224 227 225 223 218 212 212 208 203 207 214 219 221 221 225 234 236 231 234 239 239 237 237 240 236 233 233 232 234 235 236 236 236 237 238 239 240 240 240 245 252 257 260 264 266 263 261 266 271 272 272 272 271 270 270 273 278 281 280 277 275 277 283 289 291 287 281 277 275 273 272 271 270 270 271 272 273 272 270
219 218 218 221 223 225 226 226 228 228 227 226 224 220 213 214 223 223 221 223 226 227 224 218 214 210 208 213 218 219 220 221 226 237 240 236 237 244 245 238 235 237 237 235 235 234 235 234 234 233 230 230 232 234 237 238 239 243 248 253 258 261 259 256 257 263 271 276 277 278 278 277 276 275 276 276 276 275 277 280 284 289 289 284 280 278 277 276 275 275 275 275 275 275 275 276 276
221 221 221 224 226 227 227 225 227 228 229 227 220 218 218 216 221 225 220 217 223 227 224 219 215 215 218 220 220 221 223 227 233 242 248 247 246 251 253 246 239 238 238 237 235 234 235 236 237 234 228 225 224 227 234 239 242 245 249 255 259 260 259 259 263 267 272 276 278 279 280 280 280 279 278 277 275 276 279 281 282 285 285 281 275 273 273 274 275 277 278 279 279 278 278 278 278
223 222 220 222 225 225 223 223 228 229 229 227 219 219 222 219 223 229 221 212 219 226 224 220 217 219 224 223 221 223 227 235 242 249 257 261 259 260 261 257 248 240 237 237 237 238 239 243 248 242 232 225 220 224 237 243 247 250 254 260 262 264 267 269 272 275 277 279 280 280 281 282 283 282 280 278 278 279 280 281 282 283 282 277 272 269 269 272 275 278 280 282 283 282 282 281 280
227 224 220 219 221 223 222 224 229 229 230 232 229 228 227 224 228 232 227 217 219 224 226 224 222 224 227 227 226 228 232 239 246 251 259 265 265 264 262 257 250 244 244 246 247 247 247 251 256 247 236 227 222 233 246 246 250 255 256 260 266 270 273 275 278 280 280 280 279 278 279 282 283 281 278 277 279 281 278 277 278 280 279 276 273 269 267 269 273 277 282 285 287 287 286 285 283
228 225 223 220 219 224 225 223 229 231 232 235 235 233 231 230 232 232 230 226 223 224 227 227 228 230 232 232 232 233 236 241 247 251 257 264 268 269 264 257 256 256 258 261 260 258 257 257 255 244 232 224 226 238 245 244 247 252 255 261 267 271 274 278 282 282 281 280 278 277 279 280 280 279 278 277 276 277 275 272 273 274 274 273 272 270 268 268 270 274 280 286 290 290 289 287 284
230 228 226 223 220 226 229 227 230 232 233 235 236 235 235 235 236 233 230 230 228 228 230 231 233 235 236 237 237 238 240 242 246 252 256 262 269 273 269 262 262 264 261 259 259 258 257 255 249 237 226 222 227 237 245 247 251 252 255 260 264 268 272 275 278 280 280 280 279 279 279 279 279 279 279 276 271 269 268 267 269 271 271 270 269 268 268 269 271 274 279 284 288 289 288 286 284
231 235 234 231 230 233 236 239 240 237 237 239 238 238 239 239 240 238 234 233 232 231 233 234 236 238 238 240 240 240 242 244 248 253 257 262 266 270 271 267 268 272 265 255 250 252 254 251 244 235 226 223 228 236 249 255 254 252 252 257 261 265 268 269 272 276 278 280 279 276 274 274 275 275 275 272 266 263 262 263 267 268 267 266 264 265 267 270 273 275 279 283 285 285 284 282 281
226 235 239 239 241 241 238 240 243 242 241 242 241 241 242 241 240 238 236 235 234 234 236 237 238 240 240 241 242 242 244 247 251 254 256 259 261 263 267 267 268 272 268 254 245 249 258 252 243 237 232 230 229 235 247 251 249 250 250 253 257 260 262 265 266 266 270 274 274 271 270 270 269 267 265 262 261 259 259 260 263 263 262 260 260 262 265 268 272 274 277 281 283 284 283 282 280
226 230 235 235 241 246 244 242 244 247 248 248 247 246 245 243 240 237 235 235 236 236 237 239 240 242 243 245 246 246 248 250 254 255 255 257 257 258 261 261 260 263 264 253 241 248 266 258 244 237 234 235 235 237 243 246 248 251 249 250 253 252 254 256 256 259 263 267 268 267 268 269 268 265 261 259 258 258 258 258 260 261 260 260 260 260 261 263 267 272 276 280 282 284 284 283 282
234 231 231 230 233 239 245 245 245 248 250 251 253 251 246 241 239 239 236 235 237 237 239 242 244 247 249 250 252 252 252 253 253 254 255 255 257 260 257 253 252 257 264 255 242 249 269 261 245 240 236 240 246 247 249 251 251 250 247 247 248 246 246 247 249 253 257 261 265 266 267 268 267 266 264 263 261 260 260 260 260 261 263 264 265 264 263 261 262 266 272 277 279 280 281 282 282
238 237 235 234 235 236 240 243 241 239 240 245 250 249 244 240 240 241 238 235 236 237 240 242 245 248 250 251 252 253 253 253 251 251 252 253 255 258 254 247 247 253 262 260 249 254 265 257 247 249 248 249 253 252 252 252 249 246 243 240 239 237 238 240 242 246 251 258 262 264 267 267 266 267 268 266 262 261 262 263 264 264 265 266 266 266 265 262 259 259 262 267 271 273 274 274 274
233 236 237 237 238 238 241 244 243 238 235 238 243 246 246 242 238 238 235 233 234 236 238 240 242 245 247 248 249 250 250 250 250 249 250 252 254 254 251 247 247 252 258 261 257 259 260 249 246 254 253 250 247 242 241 240 237 234 231 229 228 227 230 234 237 243 249 256 259 261 264 266 269 271 271 269 265 263 262 264 266 266 265 263 263 265 266 265 263 260 259 261 265 268 270 271 271